Location: Newark
(42.9858°N, 0.6717°E)
Time: 18:14:08
(UTC+00:00)

S-56A Canister/Altair - Pass Details

Date: 22 November 2019
Orbit: 633 x 2499 km, 38.9° (Epoch: 11 December)

Event Time Altitude Azimuth Distance (km) Brightness Sun altitude
Rises 19:54:42 0° 276° (W) 4,534 12.4 -37.4°
Reaches altitude 10° 19:58:20 10° 271° (W) 3,244 11.4 -38.1°
Enters shadow 20:03:24 35° 245° (WSW) 1,581 9.3 -39.0°
Maximum altitude 20:05:28 46° 201° (SSW) 1,238 - -39.4°
Drops below altitude 10° 20:10:30 10° 129° (SE) 2,289 - -40.3°
Sets 20:12:40 0° 122° (ESE) 3,089 - -40.7°
